Starlink 34113

operational
NORAD ID: 64010 Int'l Des: 2025-101 Owner: SPXS Country: US Constellation: starlink
LEOCIRCULAR

关于 Starlink 34113

正在加载描述...

实时位置

正在加载3D地球...

即将过境

高度历史

Altitude vs Time

uPlot chart will show altitude changes over time

两行轨道根数

1 64010U 25101S 25340.78550429 .00048792 00000-0 17704-2 0 9995
2 64010 43.0012 162.9033 0001621 262.9128 97.1540 15.27588913 32849
Epoch: Dec 6, 2025 • Age: 15 hours

当前状态

高度 492.0 km
速度 7.62 km/s
星下点 -35.16°S, 120.29°W
发射日期 May 14, 2025
运行时间 0.5 years
类型 internet

技术详情

分类 Payload
质量 575.00 kg
干质量 530.00 kg
总质量 575.00 kg
长度 0.30 m
直径 4.10 m
跨度 29.00 m
形状 Box + pan
制造商 SPXS
平台类型 Starlink V2MO
阶段状态 In Orbit
所有者/国家 SPXS/US

大型星座

Loading constellations...